Location: Bismarck
(46.7731°N, 100.8200°W)
Time: 01:55:54
(UTC-05:00)

Landsat 7 - Visible Passes

Search period start: 02 September 2014 00:00
Search period end: 12 September 2014 00:00
Orbit: 702 x 703 km, 98.2° (Epoch: 01 September)

Date Brightness Start Highest point End Pass type
(mag) Time Alt. Az. Time Alt. Az. Time Alt. Az.
02 Sep 5.3 00:06:53 31° WNW 00:06:53 31° WNW 00:10:28 10° NNW visible
02 Sep 5.9 21:32:29 10° ENE 21:34:07 12° NE 21:35:46 10° NE visible
02 Sep 3.8 23:11:23 73° NNE 23:11:23 73° NNE 23:15:50 10° N visible
03 Sep 6.4 00:50:16 13° WNW 00:50:16 13° WNW 00:51:39 10° WNW visible
03 Sep 5.0 22:15:52 25° ENE 22:16:21 26° ENE 22:20:16 10° N visible
03 Sep 5.0 23:54:46 38° WNW 23:54:46 38° WNW 23:58:25 10° NNW visible
04 Sep 4.0 22:59:15 58° NE 22:59:15 58° NE 23:03:34 10° N visible
05 Sep 6.2 00:38:09 16° WNW 00:38:09 16° WNW 00:40:09 10° NW visible
05 Sep 5.3 22:03:45 20° ENE 22:04:16 21° ENE 22:07:45 10° NNE visible
05 Sep 4.7 23:42:38 45° WNW 23:42:38 45° WNW 23:46:19 10° NNW visible
06 Sep 4.3 22:47:08 45° NE 22:47:08 45° NE 22:51:15 10° N visible
07 Sep 6.0 00:26:01 20° WNW 00:26:01 20° WNW 00:28:23 10° NW visible
07 Sep 5.5 21:51:37 16° ENE 21:52:11 17° ENE 21:55:08 10° NNE visible
07 Sep 4.6 23:30:31 51° NW 23:30:31 51° NW 23:34:09 10° NNW visible
08 Sep 4.7 22:35:00 36° NE 22:35:00 36° NE 22:38:54 10° N visible
09 Sep 5.8 00:13:54 24° WNW 00:13:54 24° WNW 00:16:28 10° NW visible
09 Sep 5.8 21:39:29 13° ENE 21:40:08 13° ENE 21:42:20 10° NNE visible
09 Sep 4.5 23:18:23 51° NNW 23:18:23 51° NNW 23:21:57 10° NNW visible
10 Sep 5.0 22:22:52 28° NE 22:22:52 28° NE 22:26:29 10° N visible
11 Sep 5.6 00:01:46 28° NW 00:01:46 28° NW 00:04:27 10° NNW visible
11 Sep 6.0 21:27:22 10° ENE 21:28:06 10° NE 21:28:52 10° NE visible
11 Sep 4.6 23:06:15 46° N 23:06:15 46° N 23:09:42 10° N visible
